Hourly Weather Rudka

Today, 16 April, Friday

Time Temperature Precipitation Wind Pressure Humidity
00:00 +1°C° 0.1 mm 3 mps 744 mmHg 98%
01:00 +1°C° 0 mm 3 mps 744 mmHg 97%
02:00 0°C° 0.2 mm 4 mps 744 mmHg 97%
03:00 0°C° 0.2 mm 4 mps 743 mmHg 97%
04:00 +1°C° 0.2 mm 4 mps 743 mmHg 97%
05:00 +1°C° 0.7 mm 4 mps 743 mmHg 97%
06:00 +1°C° 0.7 mm 4 mps 743 mmHg 97%
07:00 +1°C° 0.7 mm 4 mps 743 mmHg 97%
08:00 +1°C° 0.9 mm 5 mps 743 mmHg 97%
09:00 +1°C° 0.9 mm 5 mps 743 mmHg 97%
10:00 +1°C° 0.9 mm 5 mps 743 mmHg 97%
11:00 +1°C° 0.7 mm 5 mps 743 mmHg 97%
12:00 +1°C° 0.7 mm 5 mps 743 mmHg 96%
13:00 +1°C° 0.7 mm 5 mps 743 mmHg 96%
14:00 +1°C° 0.3 mm 5 mps 743 mmHg 97%
15:00 +1°C° 0.3 mm 5 mps 743 mmHg 97%
16:00 +2°C° 0.3 mm 5 mps 743 mmHg 97%
17:00 +1°C° 0.4 mm 5 mps 744 mmHg 97%
18:00 +1°C° 0.4 mm 5 mps 744 mmHg 97%
19:00 +1°C° 0.4 mm 4 mps 744 mmHg 97%
20:00 +1°C° 0.1 mm 4 mps 744 mmHg 97%
21:00 0°C° 0.1 mm 4 mps 744 mmHg 97%
22:00 0°C° 0.1 mm 4 mps 744 mmHg 97%
23:00 0°C° 0.1 mm 4 mps 744 mmHg 97%

Tomorrow, 17 April, Saturday

Time Temperature Precipitation Wind Pressure Humidity
00:00 0°C° 0.1 mm 4 mps 744 mmHg 97%
01:00 0°C° 0.1 mm 4 mps 744 mmHg 97%
02:00 +1°C° 0.7 mm 4 mps 744 mmHg 97%
03:00 +2°C° 0.7 mm 3 mps 744 mmHg 97%
04:00 +2°C° 0.7 mm 3 mps 744 mmHg 97%
05:00 +2°C° 0.8 mm 3 mps 744 mmHg 97%
06:00 +2°C° 0.8 mm 3 mps 744 mmHg 97%
07:00 +2°C° 0.8 mm 3 mps 745 mmHg 97%
08:00 +3°C° 0.2 mm 3 mps 745 mmHg 96%
09:00 +3°C° 0.2 mm 3 mps 745 mmHg 96%
10:00 +3°C° 0.2 mm 3 mps 745 mmHg 95%
11:00 +4°C° 0 mm 2 mps 745 mmHg 95%
12:00 +5°C° 0 mm 2 mps 746 mmHg 94%
13:00 +5°C° 0 mm 2 mps 746 mmHg 94%
14:00 +5°C° 0 mm 2 mps 746 mmHg 94%
15:00 +5°C° 0 mm 2 mps 746 mmHg 93%
16:00 +6°C° 0 mm 1 mps 746 mmHg 93%
17:00 +6°C° 0 mm 1 mps 746 mmHg 94%
18:00 +6°C° 0 mm 1 mps 746 mmHg 95%
19:00 +5°C° 0 mm 1 mps 746 mmHg 96%
20:00 +5°C° 0 mm 1 mps 746 mmHg 96%
21:00 +5°C° 0 mm 1 mps 747 mmHg 97%
22:00 +5°C° 0 mm 1 mps 747 mmHg 97%
23:00 +5°C° 0 mm 1 mps 747 mmHg 97%

Day after tomorrow, 18 April, Sunday

Time Temperature Precipitation Wind Pressure Humidity
00:00 +5°C° 0 mm 1 mps 747 mmHg 97%
01:00 +5°C° 0 mm 1 mps 746 mmHg 96%
02:00 +5°C° 0 mm 1 mps 746 mmHg 95%
03:00 +5°C° 0 mm 1 mps 746 mmHg 94%
04:00 +5°C° 0 mm 1 mps 746 mmHg 94%
05:00 +6°C° 0 mm 1 mps 746 mmHg 89%
06:00 +6°C° 0 mm 1 mps 746 mmHg 85%
07:00 +7°C° 0 mm 1 mps 746 mmHg 81%
08:00 +7°C° 0 mm 2 mps 746 mmHg 75%
09:00 +8°C° 0 mm 2 mps 746 mmHg 69%
10:00 +10°C° 0 mm 2 mps 746 mmHg 63%
11:00 +12°C° 0 mm 2 mps 746 mmHg 61%
12:00 +13°C° 0 mm 2 mps 746 mmHg 58%
13:00 +12°C° 0 mm 3 mps 746 mmHg 55%
14:00 +13°C° 0 mm 3 mps 745 mmHg 55%
15:00 +13°C° 0 mm 3 mps 745 mmHg 55%
16:00 +13°C° 0 mm 3 mps 745 mmHg 55%
17:00 +12°C° 0 mm 3 mps 745 mmHg 61%
18:00 +10°C° 0 mm 2 mps 745 mmHg 68%
19:00 +9°C° 0 mm 2 mps 745 mmHg 74%
20:00 +9°C° 0 mm 2 mps 745 mmHg 77%
21:00 +10°C° 0 mm 1 mps 745 mmHg 79%
22:00 +9°C° 0 mm 1 mps 745 mmHg 82%
23:00 +9°C° 0.2 mm 1 mps 745 mmHg 86%

19 April, Monday

Time Temperature Precipitation Wind Pressure Humidity
00:00 +8°C° 0.2 mm 2 mps 745 mmHg 89%
01:00 +8°C° 0.2 mm 2 mps 745 mmHg 93%
02:00 +8°C° 0.1 mm 2 mps 744 mmHg 94%
03:00 +8°C° 0.1 mm 3 mps 744 mmHg 95%
04:00 +7°C° 0.1 mm 3 mps 744 mmHg 97%
05:00 +7°C° 0.1 mm 3 mps 744 mmHg 96%
06:00 +8°C° 0.1 mm 3 mps 744 mmHg 95%
07:00 +7°C° 0.1 mm 4 mps 744 mmHg 93%
08:00 +8°C° 0.1 mm 4 mps 744 mmHg 87%
09:00 +8°C° 0.1 mm 4 mps 744 mmHg 80%
10:00 +9°C° 0.1 mm 5 mps 744 mmHg 73%
11:00 +10°C° 0.1 mm 5 mps 744 mmHg 67%
12:00 +12°C° 0.1 mm 5 mps 743 mmHg 60%
13:00 +13°C° 0.1 mm 5 mps 743 mmHg 53%
14:00 +12°C° 0 mm 5 mps 743 mmHg 57%
15:00 +12°C° 0 mm 5 mps 743 mmHg 60%
16:00 +10°C° 0 mm 5 mps 743 mmHg 63%
17:00 +10°C° 0 mm 4 mps 743 mmHg 68%
18:00 +10°C° 0 mm 4 mps 743 mmHg 72%
19:00 +9°C° 0 mm 3 mps 743 mmHg 76%
20:00 +8°C° 0.1 mm 3 mps 742 mmHg 78%
21:00 +8°C° 0.1 mm 3 mps 742 mmHg 79%
22:00 +8°C° 0.1 mm 3 mps 742 mmHg 81%
23:00 +8°C° 0 mm 3 mps 742 mmHg 83%

20 April, Tuesday

Time Temperature Precipitation Wind Pressure Humidity
00:00 +7°C° 0 mm 3 mps 742 mmHg 85%
01:00 +7°C° 0 mm 3 mps 742 mmHg 88%
02:00 +7°C° 0 mm 2 mps 742 mmHg 89%
03:00 +6°C° 0 mm 2 mps 742 mmHg 90%
04:00 +6°C° 0 mm 2 mps 741 mmHg 91%
05:00 +6°C° 0 mm 2 mps 741 mmHg 87%
06:00 +7°C° 0 mm 2 mps 741 mmHg 84%
07:00 +7°C° 0 mm 2 mps 741 mmHg 80%
08:00 +8°C° 0 mm 3 mps 741 mmHg 75%
09:00 +8°C° 0 mm 3 mps 741 mmHg 70%
10:00 +9°C° 0 mm 3 mps 741 mmHg 65%
11:00 +9°C° 0 mm 3 mps 741 mmHg 63%
12:00 +10°C° 0 mm 3 mps 741 mmHg 61%
13:00 +10°C° 0 mm 4 mps 740 mmHg 59%
14:00 +10°C° 0 mm 4 mps 740 mmHg 59%
15:00 +10°C° 0 mm 4 mps 740 mmHg 59%
16:00 +9°C° 0 mm 5 mps 740 mmHg 60%
17:00 +8°C° 0 mm 4 mps 740 mmHg 65%
18:00 +7°C° 0 mm 3 mps 740 mmHg 71%
19:00 +5°C° 0 mm 3 mps 740 mmHg 77%
20:00 +5°C° 0 mm 3 mps 740 mmHg 79%
21:00 +4°C° 0 mm 3 mps 740 mmHg 81%
22:00 +4°C° 0 mm 3 mps 740 mmHg 83%
23:00 +4°C° 0 mm 3 mps 740 mmHg 85%

21 April, Wednesday

Time Temperature Precipitation Wind Pressure Humidity
00:00 +3°C° 0 mm 3 mps 740 mmHg 87%
01:00 +3°C° 0 mm 3 mps 740 mmHg 90%
02:00 +3°C° 0 mm 3 mps 740 mmHg 91%
03:00 +2°C° 0 mm 3 mps 740 mmHg 93%
04:00 +3°C° 0 mm 2 mps 740 mmHg 94%
05:00 +3°C° 0 mm 3 mps 740 mmHg 90%
06:00 +5°C° 0 mm 3 mps 741 mmHg 86%
07:00 +7°C° 0 mm 3 mps 741 mmHg 81%
08:00 +7°C° 0.1 mm 4 mps 741 mmHg 73%
09:00 +10°C° 0.1 mm 4 mps 741 mmHg 64%
10:00 +11°C° 0.1 mm 4 mps 741 mmHg 56%
11:00 +12°C° 0.1 mm 4 mps 741 mmHg 53%
12:00 +12°C° 0.1 mm 4 mps 741 mmHg 51%
13:00 +12°C° 0.1 mm 4 mps 741 mmHg 49%
14:00 +12°C° 0.1 mm 3 mps 741 mmHg 50%
15:00 +12°C° 0.1 mm 3 mps 741 mmHg 51%
16:00 +12°C° 0.1 mm 3 mps 741 mmHg 52%
17:00 +12°C° 0 mm 2 mps 741 mmHg 57%
18:00 +10°C° 0 mm 2 mps 741 mmHg 63%
19:00 +9°C° 0 mm 1 mps 741 mmHg 68%
20:00 +9°C° 0 mm 1 mps 741 mmHg 69%
21:00 +7°C° 0 mm 2 mps 741 mmHg 70%
22:00 +7°C° 0 mm 2 mps 741 mmHg 71%
23:00 +6°C° 0 mm 2 mps 741 mmHg 74%
Show more